Stations météo

réclame
Mon MeteoGroup
Arvika, Suède (2411): Température de l'air & dewpoint: 16.08.2019 02:00:00 - 22.08.2019 02:00:00 (CEST)Arvika, Suède (2411): Vitesse du vent & gusts: 16.08.2019 02:00:00 - 22.08.2019 02:00:00 (CEST)Arvika, Suède (2411): Direction du vent: 16.08.2019 02:00:00 - 22.08.2019 02:00:00 (CEST)Arvika, Suède (2411): reduced air pressure: 16.08.2019 02:00:00 - 22.08.2019 02:00:00 (CEST)Arvika, Suède (2411): visibility: 16.08.2019 02:00:00 - 22.08.2019 02:00:00 (CEST)Arvika, Suède (2411): Quantités de précipitations: 16.08.2019 02:00:00 - 22.08.2019 02:00:00 (CEST)
Date & Time tt [°C] td [°C] ff [km/h] ff [knt] fx [km/h] fx [knt] dd ppp [hPa] vv [km] rr [mm]
22.08.2019 02:00:00 5,8 5,7 0 0 - - N 1022,2 - 0,0
22.08.2019 01:00:00 6,7 6,6 0 0 2 1 N 1022,1 - 0,0
22.08.2019 00:00:00 6,6 6,3 0 0 4 2 N 1022,0 - 0,0
21.08.2019 23:00:00 8,0 7,7 0 0 5 3 N 1021,8 - 0,0
21.08.2019 22:00:00 9,1 8,0 0 0 4 2 N 1021,5 - 0,0
21.08.2019 21:00:00 11,6 9,0 0 0 15 8 N 1021,0 - 0,0
21.08.2019 20:00:00 16,7 7,9 5 3 18 10 SSW 1020,6 - 0,0
21.08.2019 19:00:00 17,9 8,5 5 3 19 10 SW 1020,3 50 0,0
21.08.2019 18:00:00 19,4 7,5 6 3 20 11 WSW 1019,9 50 0,0
21.08.2019 17:00:00 20,4 8,7 7 4 21 11 WSW 1019,8 46 0,0
21.08.2019 16:00:00 20,3 7,6 8 5 18 10 SW 1019,5 46 0,0
21.08.2019 15:00:00 19,1 10,1 5 3 19 11 WNW 1019,4 48 0,0
21.08.2019 14:00:00 20,3 10,1 6 3 13 7 SW 1019,3 47 0,0
21.08.2019 13:00:00 18,3 11,8 5 3 15 8 NW 1019,5 40 0,0
21.08.2019 12:00:00 16,5 11,8 8 4 14 8 NNW 1019,2 46 0,0
21.08.2019 11:00:00 18,2 11,7 3 2 16 9 WSW 1018,9 46 0,0
21.08.2019 10:00:00 16,2 11,1 6 3 16 9 SSW 1018,8 40 0,0
21.08.2019 09:00:00 14,3 11,6 3 1 8 4 ESE 1018,8 38 0,0
21.08.2019 08:00:00 12,0 12,0 0 0 7 4 N 1018,6 23 0,0
21.08.2019 07:00:00 9,2 9,2 3 2 8 5 SSW 1018,4 21 0,0
21.08.2019 06:00:00 6,9 6,8 0 0 4 2 N 1018,2 - 0,0
21.08.2019 05:00:00 9,8 9,3 4 2 9 5 SSE 1017,8 - 0,0
21.08.2019 04:00:00 10,3 9,8 0 0 8 4 N 1017,6 - 0,0
21.08.2019 03:00:00 13,1 11,3 4 2 12 7 S 1017,3 - 0,0
21.08.2019 02:00:00 13,6 11,6 4 2 11 6 SSE 1017,1 - 0,0
21.08.2019 01:00:00 13,1 11,5 5 3 9 5 SSE 1016,9 - 0,0
21.08.2019 00:00:00 11,6 11,0 3 2 6 4 S 1016,7 - 0,0
20.08.2019 23:00:00 11,9 10,3 4 2 13 7 SSE 1016,5 - 0,0
20.08.2019 22:00:00 14,6 10,6 5 3 22 12 SSW 1016,3 - 0,0
20.08.2019 21:00:00 15,6 10,6 6 3 21 11 S 1016,1 - 0,0
20.08.2019 20:00:00 16,6 10,4 9 5 19 11 SSW 1015,7 - 0,0
20.08.2019 19:00:00 17,4 10,5 7 4 21 11 SSW 1015,2 48 0,0
20.08.2019 18:00:00 17,9 10,8 7 4 29 15 SSW 1014,8 46 0,0
20.08.2019 17:00:00 19,1 9,6 10 6 29 16 SW 1014,2 39 0,0
20.08.2019 16:00:00 19,2 10,2 12 6 31 17 SSW 1014,1 39 0,0
20.08.2019 15:00:00 19,0 12,3 7 4 31 17 SSW 1014,1 43 0,0
20.08.2019 14:00:00 18,4 11,0 14 8 26 14 S 1014,0 35 0,0
20.08.2019 13:00:00 17,4 11,0 8 5 30 16 SSW 1013,8 29 0,0
20.08.2019 12:00:00 18,4 10,2 11 6 36 19 SSW 1013,2 32 0,0
20.08.2019 11:00:00 18,0 10,9 9 5 29 16 SW 1012,8 38 0,0
20.08.2019 10:00:00 16,9 11,8 7 4 19 11 SSW 1012,4 29 0,0
20.08.2019 09:00:00 15,9 12,3 10 5 - - SSW 1012,0 28 0,0
20.08.2019 08:00:00 15,2 12,5 9 5 21 12 SSW 1011,4 30 0,0
20.08.2019 07:00:00 14,2 12,8 6 3 11 6 S 1011,2 30 0,0
20.08.2019 06:00:00 13,7 12,6 6 3 12 7 S 1010,8 26 0,0
20.08.2019 05:00:00 10,9 10,7 0 0 6 3 N 1010,4 - 0,0
20.08.2019 04:00:00 10,6 10,3 0 0 7 4 N 1010,1 - 0,0
20.08.2019 03:00:00 14,0 12,0 7 4 12 7 S 1009,5 - 0,0
20.08.2019 02:00:00 14,1 12,0 6 4 16 9 S 1009,3 - 0,0
20.08.2019 01:00:00 14,3 12,2 8 4 14 7 S 1009,1 - 0,0
20.08.2019 00:00:00 14,4 11,9 6 4 16 9 S 1008,9 - 0,0
19.08.2019 23:00:00 14,7 11,7 6 4 19 11 S 1008,5 - 0,0
19.08.2019 22:00:00 15,3 11,3 8 4 18 10 S 1008,2 - 0,0
19.08.2019 21:00:00 15,7 10,9 6 3 23 12 S 1007,8 - 0,0
19.08.2019 20:00:00 16,6 10,4 9 5 32 18 SSW 1007,2 - 0,0
19.08.2019 19:00:00 17,9 11,0 11 6 27 15 SSW 1006,5 37 0,0
19.08.2019 18:00:00 18,6 10,2 13 7 37 20 SSW 1006,0 33 0,0
19.08.2019 17:00:00 18,5 11,1 11 6 28 15 SSW 1005,7 35 0,0
19.08.2019 16:00:00 19,1 11,9 11 6 28 15 SSW 1005,3 31 0,0
19.08.2019 15:00:00 18,9 12,4 9 5 29 16 SSW 1004,9 39 0,0
19.08.2019 14:00:00 16,8 14,3 7 4 14 8 SSW 1004,7 28 1,9
19.08.2019 13:00:00 14,5 14,0 3 2 31 17 W 1004,3 1,8 -
19.08.2019 12:00:00 17,7 12,2 14 7 30 16 SSW 1003,6 31 0,0
19.08.2019 11:00:00 17,6 12,5 12 6 25 14 S 1003,4 31 0,0
19.08.2019 10:00:00 16,5 12,7 10 6 21 11 SSW 1003,5 24 0,0
19.08.2019 09:00:00 15,0 12,9 6 3 12 7 SSW 1003,4 30 0,0
19.08.2019 08:00:00 14,1 12,8 6 3 8 5 ESE 1003,0 33 0,0
19.08.2019 07:00:00 12,7 12,2 3 2 10 5 S 1002,7 32 0,0
19.08.2019 06:00:00 11,9 11,7 3 2 7 4 S 1002,2 21 0,0
19.08.2019 05:00:00 11,6 11,4 3 2 5 3 S 1001,8 20 0,0
19.08.2019 04:00:00 11,5 11,3 0 0 3 1 N 1001,2 7 0,0
19.08.2019 03:00:00 11,8 11,6 0 0 4 2 N 1001,4 7 -
19.08.2019 02:00:00 12,3 12,0 4 2 6 3 N 1000,8 5 -
19.08.2019 01:00:00 12,3 11,8 2 1 12 7 W 1001,0 5 2,8
19.08.2019 00:00:00 13,3 13,1 0 0 10 5 N 1000,7 2,1 2,6
18.08.2019 23:00:00 14,0 13,4 6 3 12 6 SE 1000,9 7 1,1
18.08.2019 22:00:00 14,0 13,7 0 0 2 1 N 1001,1 6 0,5
18.08.2019 21:00:00 14,8 13,7 0 0 3 1 N 1001,3 21 0,0
18.08.2019 20:00:00 16,2 14,2 0 0 4 2 N 1001,6 38 0,0
18.08.2019 19:00:00 16,8 13,1 0 0 7 4 N 1002,0 35 0,0
18.08.2019 18:00:00 17,4 12,3 2 1 19 10 SW 1002,3 34 0,0
18.08.2019 17:00:00 18,0 10,9 8 5 18 10 S 1002,3 34 0,0
18.08.2019 16:00:00 19,0 9,8 9 5 22 12 S 1002,6 34 0,0
18.08.2019 15:00:00 19,5 10,8 13 7 29 15 S 1002,8 41 0,0
18.08.2019 14:00:00 18,7 10,0 13 7 22 12 SSE 1003,0 40 0,0
18.08.2019 13:00:00 19,4 8,4 6 3 17 9 S 1003,0 47 0,0
18.08.2019 12:00:00 19,6 9,8 6 3 16 9 S 1003,2 30 0,0
18.08.2019 11:00:00 18,4 10,5 8 5 18 10 S 1003,2 28 0,0
18.08.2019 10:00:00 17,0 11,3 10 5 18 10 S 1003,1 29 0,0
18.08.2019 09:00:00 16,1 12,3 7 4 16 9 SSW 1002,9 20 0,0
18.08.2019 08:00:00 15,0 12,9 8 4 14 7 SSE 1003,0 19 0,0
18.08.2019 07:00:00 11,1 10,9 3 1 - - SSE 1003,1 4,9 0,0
18.08.2019 06:00:00 12,3 12,1 3 2 6 3 S 1002,8 4,1 0,0
18.08.2019 05:00:00 13,4 12,8 4 2 - - S 1002,6 12 0,0
18.08.2019 04:00:00 13,3 12,7 3 2 7 4 SSE 1002,6 12 0,0
18.08.2019 03:00:00 13,7 13,1 5 3 13 7 S 1002,5 11 0,0
18.08.2019 02:00:00 14,4 13,4 5 3 14 7 S 1002,4 16 0,0
18.08.2019 01:00:00 15,1 14,0 7 4 12 7 S 1002,1 25 0,0
18.08.2019 00:00:00 14,8 14,0 3 2 - - S 1001,7 29 0,0
17.08.2019 23:00:00 15,6 14,8 6 3 13 7 SSE 1001,2 27 0,0
17.08.2019 22:00:00 15,4 14,8 4 2 11 6 SSE 1001,4 33 0,0
17.08.2019 21:00:00 15,7 14,9 5 3 24 13 SSE 1001,4 50 0,0
17.08.2019 20:00:00 15,6 14,8 13 7 24 13 SSE 1001,1 33 1,1
17.08.2019 19:00:00 15,4 14,6 11 6 26 14 SSE 1001,1 10 0,4
17.08.2019 18:00:00 15,3 14,3 13 7 27 15 SSE 1001,5 14 0,1
17.08.2019 17:00:00 15,3 14,2 14 8 27 15 SSE 1002,1 10 0,2
17.08.2019 16:00:00 15,1 14,0 11 6 27 14 SSE 1002,6 12 0,2
17.08.2019 15:00:00 15,0 13,7 14 8 27 15 SSE 1003,2 12 0,5
17.08.2019 14:00:00 14,9 13,4 14 7 28 15 SSE 1003,8 13 0,4
17.08.2019 13:00:00 15,5 13,9 14 8 27 14 SSE 1004,3 16 0,1
17.08.2019 12:00:00 14,7 13,6 11 6 24 13 SSE 1005,0 17 0,4
17.08.2019 11:00:00 14,4 12,8 9 5 19 11 SSE 1005,5 14 0,7
17.08.2019 10:00:00 14,5 12,2 7 4 20 11 SSE 1005,8 22 0,0
17.08.2019 09:00:00 14,6 11,7 9 5 20 11 SE 1006,1 46 0,0
17.08.2019 08:00:00 14,1 11,6 7 4 13 7 SE 1006,5 42 0,0
17.08.2019 07:00:00 13,5 11,0 6 4 13 7 SSE 1006,9 37 0,0
17.08.2019 06:00:00 13,0 10,5 3 1 9 5 SSE 1007,2 42 0,0
17.08.2019 05:00:00 13,2 10,7 4 2 14 8 S 1007,7 45 0,0
17.08.2019 04:00:00 12,8 10,5 6 4 15 8 SSE 1007,8 37 0,0
17.08.2019 03:00:00 12,9 10,6 7 4 13 7 SSE 1007,9 33 0,0
17.08.2019 02:00:00 13,0 10,5 5 3 13 7 SSE 1008,2 30 0,0
17.08.2019 01:00:00 - - - - 14 7 - - - -
17.08.2019 00:00:00 13,8 10,4 6 3 21 11 S 1008,6 32 0,0
16.08.2019 23:00:00 14,7 11,1 6 3 19 11 S 1008,7 40 0,0
16.08.2019 22:00:00 15,3 11,5 7 4 19 10 S 1008,5 41 0,0
16.08.2019 21:00:00 15,6 12,0 7 4 19 10 SSW 1008,3 41 0,0
16.08.2019 20:00:00 16,7 13,4 6 3 18 10 SSW 1008,0 50 0,0
16.08.2019 19:00:00 17,9 14,2 8 4 14 8 S 1007,4 50 0,0
16.08.2019 18:00:00 18,8 16,8 3 2 10 5 SSW 1007,2 50 0,0
16.08.2019 17:00:00 19,7 17,5 0 0 9 5 N 1007,4 40 2,6
16.08.2019 16:00:00 17,6 16,3 3 2 19 10 W 1007,6 18 0,1
16.08.2019 15:00:00 19,1 15,0 9 5 16 8 SE 1007,5 45 0,0
16.08.2019 14:00:00 18,0 14,7 5 3 14 7 SE 1008,1 45 0,0
16.08.2019 13:00:00 17,5 14,2 7 4 16 9 SSE 1008,0 50 0,0
16.08.2019 12:00:00 16,7 13,8 7 4 14 8 SSE 1008,0 50 0,0
16.08.2019 11:00:00 16,0 13,3 6 4 12 7 SSE 1007,9 50 0,0
16.08.2019 10:00:00 15,4 12,9 6 3 13 7 SSE 1007,7 48 0,0
16.08.2019 09:00:00 15,1 12,4 6 4 11 6 SSE 1007,8 50 0,0
16.08.2019 08:00:00 14,7 11,8 0 0 12 7 N 1007,8 50 0,0
16.08.2019 07:00:00 13,1 11,5 3 2 7 4 SSE 1007,7 50 0,0
16.08.2019 06:00:00 10,5 9,9 0 0 4 2 N 1007,8 26 0,0
16.08.2019 05:00:00 13,0 10,4 3 2 8 4 SSE 1007,6 50 0,0
16.08.2019 04:00:00 13,9 10,5 3 2 11 6 SE 1007,9 50 0,0
16.08.2019 03:00:00 14,2 11,7 3 2 9 5 SE 1008,1 50 0,0
16.08.2019 02:00:00 14,6 12,1 3 2 10 5 SSE 1008,1 50 0,0

tt = Température de l'air
td = dewpoint
ff = Vitesse du vent
fx = gusts
dd = Direction du vent
ppp = reduced air pressure
vv = visibility
rr = Quantités de précipitations

stations d'obs. à proximité